Weather reports worldwide

Advertisment
Huelva, Spain (8383): temperature & dewpoint: 06.12.2018 00:00:00 - 12.12.2018 00:00:00 (CET)Huelva, Spain (8383): wind speed: 06.12.2018 00:00:00 - 12.12.2018 00:00:00 (CET)Huelva, Spain (8383): wind direction: 06.12.2018 00:00:00 - 12.12.2018 00:00:00 (CET)Huelva, Spain (8383): reduced air pressure: 06.12.2018 00:00:00 - 12.12.2018 00:00:00 (CET)Huelva, Spain (8383): visibility: 06.12.2018 00:00:00 - 12.12.2018 00:00:00 (CET)Huelva, Spain (8383): precipitation: 06.12.2018 00:00:00 - 12.12.2018 00:00:00 (CET)
Date & Time tt [°C] td [°C] ff [km/h] ff [kn] dd ppp [hPa] vv [km] rr [mm]
12.12.2018 00:00:00 13,3 12,2 8 4 NE 1024,3 7 0,0
11.12.2018 23:00:00 13,2 11,9 8 4 NE 1023,8 6 0,0
11.12.2018 22:00:00 13,9 12,5 5 3 NE 1024,0 7 -
11.12.2018 21:00:00 14,3 12,7 8 4 NE 1024,2 8 0,0
11.12.2018 20:00:00 14,7 13,1 8 4 NE 1024,1 8 0,0
11.12.2018 19:00:00 15,4 13,9 8 4 NE 1023,5 9 -
11.12.2018 18:00:00 16,2 14,2 5 3 NE 1023,1 12 0,0
11.12.2018 17:00:00 16,7 14,3 5 3 E 1023,0 12 0,0
11.12.2018 16:00:00 16,7 14,3 5 3 E 1023,0 16 -
11.12.2018 15:00:00 16,7 14,2 8 4 E 1023,0 13 0,0
11.12.2018 14:00:00 16,1 13,9 5 3 ENE 1023,8 11 0,0
11.12.2018 13:00:00 15,2 13,6 5 3 SSE 1024,5 8 -
11.12.2018 12:00:00 14,8 13,3 8 4 SSE 1024,9 10 0,0
11.12.2018 11:00:00 14,5 13,4 5 3 SE 1024,9 7 0,0
11.12.2018 10:00:00 14,2 13,4 9 5 SE 1024,4 6 -
11.12.2018 09:00:00 14,4 13,8 11 6 SE 1023,7 6 0,0
11.12.2018 08:00:00 13,6 13,3 5 3 E 1023,5 - 0,0
11.12.2018 07:00:00 12,5 12,3 8 4 ENE 1023,2 6 -
11.12.2018 06:00:00 10,7 10,2 11 6 NE 1023,0 6 0,0
11.12.2018 05:00:00 10,5 9,7 11 6 NE 1023,2 8 0,0
11.12.2018 04:00:00 10,4 9,2 9 5 NE 1023,7 11 -
11.12.2018 03:00:00 9,6 7,9 8 4 NE 1024,0 17 0,0
11.12.2018 02:00:00 9,4 7,5 4 2 ENE 1024,2 14 0,0
11.12.2018 01:00:00 10,3 8,1 4 2 NNW 1024,4 15 -
11.12.2018 00:00:00 11,1 8,7 8 4 NE 1024,7 14 0,0
10.12.2018 23:00:00 12,4 9,8 2 1 ENE 1024,8 14 0,0
10.12.2018 22:00:00 13,0 9,6 4 2 NNE 1024,7 14 -
10.12.2018 21:00:00 13,9 10,5 5 3 NE 1024,5 19 0,0
10.12.2018 20:00:00 16,2 11,1 5 3 WNW 1024,3 20 0,0
10.12.2018 19:00:00 17,7 9,3 2 1 S 1024,0 20 -
10.12.2018 18:00:00 20,2 9,7 4 2 W 1023,8 20 0,0
10.12.2018 17:00:00 22,3 9,5 8 4 SSW 1023,8 20 0,0
10.12.2018 16:00:00 22,7 9,1 5 3 S 1023,9 20 -
10.12.2018 15:00:00 22,3 9,5 9 5 SSW 1024,6 20 0,0
10.12.2018 14:00:00 22,5 10,9 11 6 SSW 1025,4 20 0,0
10.12.2018 13:00:00 22,6 4,6 11 6 ESE 1026,2 20 -
10.12.2018 12:00:00 21,3 7,5 4 2 SSE 1026,9 20 0,0
10.12.2018 11:00:00 18,3 7,7 4 2 NE 1026,8 18 0,0
10.12.2018 10:00:00 14,6 9,0 9 5 NE 1026,0 18 -
10.12.2018 09:00:00 12,2 8,3 9 5 NE 1025,8 19 0,0
10.12.2018 08:00:00 11,9 8,0 9 5 NE 1025,7 19 0,0
10.12.2018 07:00:00 10,9 7,6 4 2 NNE 1025,8 25 -
10.12.2018 06:00:00 11,1 8,0 9 5 NE 1025,7 20 0,0
10.12.2018 05:00:00 10,7 7,8 5 3 NNE 1026,1 20 0,0
10.12.2018 04:00:00 9,9 8,0 5 3 N 1026,8 20 -
10.12.2018 03:00:00 9,1 7,9 8 4 NNE 1027,1 20 0,0
10.12.2018 02:00:00 9,6 8,2 5 3 NNE 1027,6 20 0,0
10.12.2018 01:00:00 10,5 8,6 8 4 NNE 1028,1 20 -
10.12.2018 00:00:00 11,8 9,2 8 4 NNE 1028,4 20 0,0
09.12.2018 23:00:00 11,6 9,5 8 4 NNE 1028,3 20 0,0
09.12.2018 22:00:00 12,2 9,8 9 5 NE 1028,4 18 -
09.12.2018 21:00:00 13,4 10,6 5 3 NNE 1028,2 19 0,0
09.12.2018 20:00:00 13,8 10,2 2 1 ESE 1028,2 20 0,0
09.12.2018 19:00:00 15,9 11,1 2 1 SSE 1027,9 20 -
09.12.2018 18:00:00 19,2 11,0 5 3 WSW 1027,6 20 0,0
09.12.2018 17:00:00 21,8 10,3 8 4 S 1027,4 20 0,0
09.12.2018 16:00:00 21,5 7,3 9 5 E 1027,3 20 -
09.12.2018 15:00:00 21,1 8,0 9 5 E 1027,6 20 0,0
09.12.2018 14:00:00 20,2 8,2 8 4 E 1028,2 20 0,0
09.12.2018 13:00:00 19,0 8,0 11 6 E 1028,9 20 -
09.12.2018 12:00:00 16,6 8,8 9 5 NE 1029,9 20 0,0
09.12.2018 11:00:00 14,0 8,0 9 5 NNE 1030,2 20 0,0
09.12.2018 10:00:00 11,7 7,2 5 3 N 1030,0 20 -
09.12.2018 09:00:00 8,4 5,5 5 3 N 1029,6 20 0,0
09.12.2018 08:00:00 7,3 5,3 4 2 N 1029,5 20 0,0
09.12.2018 07:00:00 6,6 5,4 4 2 NNE 1029,3 20 -
09.12.2018 06:00:00 7,2 5,3 4 2 NE 1028,7 20 0,0
09.12.2018 05:00:00 8,5 6,6 5 3 N 1029,1 20 0,0
09.12.2018 04:00:00 8,5 7,7 9 5 NNE 1029,4 18 -
09.12.2018 03:00:00 8,7 7,9 5 3 NNE 1029,5 20 0,0
09.12.2018 02:00:00 9,7 7,8 5 3 NNE 1029,5 20 0,0
09.12.2018 01:00:00 10,0 8,4 5 3 N 1029,6 20 -
09.12.2018 00:00:00 11,9 9,1 8 4 N 1029,6 20 0,0
08.12.2018 23:00:00 12,6 9,8 9 5 N 1029,6 20 0,0
08.12.2018 22:00:00 13,3 10,1 15 8 N 1029,2 20 -
08.12.2018 21:00:00 13,5 9,9 11 6 NW 1028,9 20 0,0
08.12.2018 20:00:00 15,1 10,1 9 5 N 1028,6 20 0,0
08.12.2018 19:00:00 14,9 10,7 9 5 WNW 1028,4 20 -
08.12.2018 18:00:00 17,8 12,0 9 5 WNW 1028,0 20 0,0
08.12.2018 17:00:00 19,3 12,8 8 4 WNW 1028,0 20 0,0
08.12.2018 16:00:00 19,1 12,1 9 5 NW 1028,0 20 -
08.12.2018 15:00:00 18,6 12,1 8 4 N 1028,3 20 0,0
08.12.2018 14:00:00 18,2 12,4 11 6 WNW 1028,8 20 0,0
08.12.2018 13:00:00 17,1 12,4 11 6 WNW 1029,4 20 -
08.12.2018 12:00:00 15,0 12,1 11 6 WNW 1030,3 20 0,0
08.12.2018 11:00:00 13,4 11,8 8 4 N 1030,5 20 0,0
08.12.2018 10:00:00 11,2 10,1 5 3 NE 1030,3 20 -
08.12.2018 09:00:00 9,8 9,3 4 2 N 1029,7 17 0,0
08.12.2018 08:00:00 9,7 8,8 5 3 NE 1029,3 19 0,0
08.12.2018 07:00:00 9,7 8,8 4 2 ENE 1028,9 16 -
08.12.2018 06:00:00 10,7 9,6 8 4 NW 1028,7 20 0,0
08.12.2018 05:00:00 10,9 9,8 11 6 WNW 1028,6 19 0,0
08.12.2018 04:00:00 11,1 10,0 9 5 NW 1029,1 19 -
08.12.2018 03:00:00 11,2 10,1 11 6 N 1029,3 19 0,0
08.12.2018 02:00:00 10,8 9,7 5 3 N 1029,2 16 0,0
08.12.2018 01:00:00 11,3 10,2 8 4 N 1029,6 19 -
08.12.2018 00:00:00 11,6 10,3 4 2 S 1029,8 19 0,0
07.12.2018 23:00:00 12,3 10,7 8 4 N 1029,7 19 0,0
07.12.2018 22:00:00 12,6 11,0 9 5 N 1029,9 18 -
07.12.2018 21:00:00 13,7 11,2 11 6 WNW 1029,5 20 0,0
07.12.2018 20:00:00 14,5 10,1 11 6 WNW 1028,9 20 0,0
07.12.2018 19:00:00 15,7 10,9 11 6 NW 1028,5 20 -
07.12.2018 18:00:00 18,2 11,7 13 7 WNW 1028,0 20 0,0
07.12.2018 17:00:00 20,6 12,3 11 6 W 1027,5 20 0,0
07.12.2018 16:00:00 21,1 13,3 11 6 S 1027,1 19 -
07.12.2018 15:00:00 21,2 12,3 5 3 NW 1027,8 20 0,0
07.12.2018 14:00:00 20,1 13,3 11 6 WNW 1028,7 20 0,0
07.12.2018 13:00:00 18,0 11,8 4 2 WNW 1029,1 20 -
07.12.2018 12:00:00 15,2 11,2 8 4 NW 1030,2 20 0,0
07.12.2018 11:00:00 13,0 9,8 4 2 ENE 1029,4 19 0,0
07.12.2018 10:00:00 10,4 8,5 4 2 ENE 1029,0 20 -
07.12.2018 09:00:00 7,3 7,0 5 3 NNE 1028,5 19 0,0
07.12.2018 08:00:00 7,5 7,2 5 3 NNE 1028,0 17 0,0
07.12.2018 07:00:00 7,8 7,4 4 2 NNE 1027,4 17 -
07.12.2018 06:00:00 8,4 7,8 5 3 NE 1027,3 15 0,0
07.12.2018 05:00:00 9,2 8,4 5 3 NNE 1027,1 20 0,0
07.12.2018 04:00:00 10,7 9,3 5 3 N 1027,2 20 -
07.12.2018 03:00:00 10,7 9,5 4 2 NE 1027,2 20 0,0
07.12.2018 02:00:00 11,7 9,8 5 3 NNE 1027,1 20 0,0
07.12.2018 01:00:00 13,3 10,8 8 4 NNW 1027,4 20 -
07.12.2018 00:00:00 14,1 11,1 11 6 N 1027,5 20 0,0
06.12.2018 23:00:00 15,2 11,6 11 6 N 1027,4 20 0,0
06.12.2018 22:00:00 15,2 12,1 8 4 N 1027,2 20 -
06.12.2018 21:00:00 16,6 12,5 11 6 N 1027,2 20 0,0
06.12.2018 20:00:00 17,9 13,0 11 6 N 1027,0 20 0,0
06.12.2018 19:00:00 19,1 12,8 11 6 WNW 1026,4 20 -
06.12.2018 18:00:00 20,9 12,3 9 5 NW 1026,2 20 0,0
06.12.2018 17:00:00 23,2 13,1 11 6 WNW 1025,9 20 0,0
06.12.2018 16:00:00 23,3 12,3 8 4 N 1025,8 20 -
06.12.2018 15:00:00 22,2 11,6 8 4 N 1026,4 20 0,0
06.12.2018 14:00:00 20,7 12,7 8 4 N 1027,2 20 0,0
06.12.2018 13:00:00 18,2 11,5 8 4 N 1027,9 20 -
06.12.2018 12:00:00 15,7 9,4 8 4 N 1028,4 20 0,0
06.12.2018 11:00:00 13,3 9,5 5 3 NNE 1028,7 20 0,0
06.12.2018 10:00:00 10,1 8,0 4 2 ENE 1028,5 20 -
06.12.2018 09:00:00 9,5 7,8 11 6 N 1027,6 20 0,0
06.12.2018 08:00:00 8,1 7,7 4 2 N 1027,5 19 0,0
06.12.2018 07:00:00 8,4 8,0 4 2 NNE 1027,0 15 -
06.12.2018 06:00:00 9,0 8,7 5 3 NNE 1026,7 14 0,0
06.12.2018 05:00:00 10,7 9,8 8 4 N 1026,8 20 0,0
06.12.2018 04:00:00 11,4 10,1 11 6 N 1027,0 20 -
06.12.2018 03:00:00 11,6 10,5 11 6 N 1026,5 18 0,0
06.12.2018 02:00:00 12,3 10,9 8 4 NNW 1026,4 20 0,0
06.12.2018 01:00:00 12,6 10,8 11 6 N 1026,7 20 -
06.12.2018 00:00:00 13,9 11,6 13 7 N 1026,8 20 0,0

tt = temperature
td = dewpoint
ff = wind speed
dd = wind direction
ppp = reduced air pressure
vv = visibility
rr = precipitation

Next stations